Location: Schommer Observatory
(40.5200°N, 74.4500°W)
Time: 10:16:17
(UTC-05:00)

Envisat - Pass Details

Date: 19 November 2018
Orbit: 764 x 766 km, 98.2° (Epoch: 11 December)

Event Time Altitude Azimuth Distance (km) Brightness Sun altitude
Rises 19:40:22 0° 193° (SSW) 3,218 6.3 -34.6°
Enters shadow 19:42:08 - 200° (SSW) 2,574 5.9 -35.0°
Exits shadow 19:46:18 27° 243° (WSW) 1,437 4.8 -35.8°
Maximum altitude 19:47:19 29° 265° (W) 1,373 4.7 -35.9°
Drops below altitude 10° 19:51:44 10° 325° (NW) 2,310 5.9 -36.8°
Sets 19:54:20 0° 336° (NNW) 3,240 6.6 -37.3°
